Simultaneous Nadir Overpasses (SNOs) Predictions

Prediction of SNOs between GOES-15 and TERRA Satellite Orbit:

Table of predicted SNOs for the next 14.0 days since TLE Epoch: 12/14/2013
Index Date Time (GOES-15) GOES-15 Lat,Lon TERRA Lat,Lon Distance(km) Time Diff (sec)
1 12/14/2013 07:28:11 0.10,-135.28 0.16,-134.92 40.50 80
2 12/16/2013 07:16:05 0.11,-135.23 0.78,-131.98 369.15 80
3 12/16/2013 19:40:02 -0.08,-135.18 0.34,-137.14 222.99 80
4 12/18/2013 19:25:19 -0.09,-135.13 -0.27,-134.22 103.71 80
5 12/19/2013 07:49:26 0.06,-135.16 -0.83,-139.42 484.51 80
6 12/20/2013 19:13:19 -0.09,-135.08 -0.91,-131.31 428.89 80
7 12/21/2013 07:37:26 0.06,-135.10 -0.22,-136.51 159.77 80
8 12/23/2013 07:22:48 0.07,-135.04 0.35,-133.60 163.36 80
9 12/23/2013 19:46:47 -0.04,-134.99 0.78,-138.77 430.44 80
10 12/25/2013 07:10:53 0.07,-134.98 0.96,-130.71 484.77 80
11 12/25/2013 19:34:53 -0.04,-134.92 0.15,-135.88 109.49 80
12 12/27/2013 19:20:21 -0.05,-134.85 -0.45,-133.00 209.47 80




NCC Satellite Simultaneous Nadir Overpasses (SNOs) Prediction Service
